< < Back
Terminal Aerodrome Forecast


Current Version              Previous Versions:   1  2  3  4  5  6  7  8  9  

Terminal Aerodrome Forecast

417
FTUS42 KGSP 201100
TAFAVL
TAF
KAVL 201133Z 2012/2112 36005KT P6SM FEW080 BKN250
     FM201400 01010KT P6SM SCT250
      TEMPO 2018/2022 16009KT
     FM210100 35005KT P6SM FEW250=

Latest METAR

262
SAUS70 KWBC 210900 RRL
MTRAVL
METAR KAVL 210854Z AUTO 00000KT 10SM CLR 04/02 A3019 RMK AO2 SLP213
T00390022 56009


USA.gov is the U.S. government's official web portal to all federal, state and local government web resources and services.